Regional Weather Roundup
Issued by NWS

Home | Current Version | Previous Version | Graphics & Text | Print | Product List | Glossary On
Versions: 1 2 3 4 5 6 7 8 9 10 11 12 13 14 15 16 17 18 19 20 21 22 23 24 25 26 27 28 29 30 31 32 33 34 35 36 37 38 39 40 41 42 43 44 45 46 47 48 49 50
351
ASUS43 KMKX 220320
RWRWI

WISCONSIN REGIONAL WEATHER ROUNDUP
NATIONAL WEATHER SERVICE MILWAUKEE/SULLIVAN WI
900 PM CST TUE NOV 21 2017

NOTE: "FAIR" INDICATES FEW OR NO CLOUDS BELOW 12,000 FEET WITH NO
SIGNIFICANT WEATHER AND/OR OBSTRUCTIONS TO VISIBILITY.

WIZ001-002-006>008-014>016-023>028-220400-
NORTHWEST WISCONSIN

CITY           SKY/WX    TMP DP  RH WIND       PRES   REMARKS
SUPERIOR ARPT  MOCLDY    17   8  70 W3        30.28S
ASHLAND        CLOUDY    20  10  65 NW10      30.24R WCI   9
HAYWARD        MOCLDY    17   7  64 VRB6      30.23R WCI   9
SIREN          CLEAR     17   8  65 NW9       30.28R WCI   6
CUMBERLAND     MOCLDY    19  10  68 NW13G18   30.23R WCI   7
RICE LAKE      CLEAR     20  11  67 NW12G18   30.25R WCI   8
CHETEK         CLEAR     21  12  68 N9        30.23R WCI  10
LADYSMITH      CLEAR     20  11  68 NW14G25   30.22R WCI   6
EAU CLAIRE     CLEAR     22  10  60 NW10      30.22R WCI  11
MENOMONIE      CLEAR     23  11  61 NW13      30.25R WCI  11
NEW RICHMOND   CLEAR     20  10  64 NW12G17   30.26S WCI   8
OSCEOLA        CLEAR     21  10  64 N8        30.31R WCI  11
$$

WIZ003>005-009-010-017-018-220400-
NORTH CENTRAL WISCONSIN

CITY           SKY/WX    TMP DP  RH WIND       PRES   REMARKS
MANITOWISH WTR FLURRIES  17  12  80 NW14G20   30.13R WCI   3
ARBOR VITAE    FLURRIES  19  14  78 NW8       30.13R WCI   9
WOODRUFF       FLURRIES  19  14  78 NW8       30.13R WCI   9
RHINELANDER    FLURRIES  20  11  68 VRB7G18   30.12R WCI  11
EAGLE RIVER    FLURRIES  19  12  73 NW13      30.10R WCI   7
LAND O LAKES   FLURRIES  20  14  76 NW8G17    30.10R WCI  11
PHILLIPS       FLURRIES  17   9  71 NW14G21   30.16S WCI   3
TOMAHAWK       CLOUDY    20  10  65 NW9       30.14R WCI   9
MEDFORD        CLEAR     18   9  68 NW9       30.15R WCI   6
MERRILL        CLOUDY    20  11  67 NW5       30.15S WCI  14
$$

WIZ029-030-035-036-043>047-220400-
CENTRAL WISCONSIN

CITY           SKY/WX    TMP DP  RH WIND       PRES   REMARKS
WAUSAU         CLEAR     20  11  68 NW8       30.15R WCI  10
MOSINEE        CLEAR     19  12  73 NW6       30.16R WCI  11
MARSHFIELD     CLEAR     17  10  74 NW7       30.16R WCI   8
STEVENS POINT  CLEAR     20  10  63 NW3       30.18R
WAUPACA        CLEAR     24  13  64 NW5       30.18R WCI  18
WAUTOMA        PTCLDY    20  13  74 NW7       30.19R WCI  11
WISC RAPIDS    CLEAR     20  11  68 NW6       30.20R WCI  12
CAMP DOUGLAS   CLEAR     16  10  79 W8        30.20R WCI   5
$$

WIZ011>013-019>022-031-037>040-048>050-220400-
NORTHEAST WISCONSIN

CITY           SKY/WX    TMP DP  RH WIND       PRES   REMARKS
ANTIGO         CLOUDY    20  11  66 NW7       30.12R WCI  12
SHAWANO        CLOUDY    25  11  55 NW6       30.17R WCI  18
OCONTO         CLOUDY    25  11  56 NW13G18   30.16R WCI  13
STURGEON BAY   FLURRIES  25  14  63 NW18G24   30.14R WCI  11
GREEN BAY      CLOUDY    25  13  60 NW13      30.17R WCI  14
MANITOWOC      CLOUDY    26  14  60 N13       30.16R WCI  15
APPLETON       PTCLDY    21   9  58 NW16      30.14R WCI   7
CLINTONVILLE   CLEAR     21  10  63 NW5       30.17R WCI  15
OSHKOSH        CLEAR     24  12  60 NW10      30.16R WCI  14
$$

WIZ032>034-041-042-053>061-220400-
SOUTHWEST WISCONSIN

CITY           SKY/WX    TMP DP  RH WIND       PRES   REMARKS
LA CROSSE      CLEAR     27  12  53 NW15G26   30.24R WCI  15
SPARTA         CLEAR     25  12  59 NW8       30.24R WCI  16
VIROQUA        CLEAR     22  16  77 W6        30.21R WCI  14
BOSCOBEL       CLEAR     25  13  60 VRB5      30.26R WCI  19
PRAIRIE DU CHI CLEAR     25  12  56 NW9       30.26S WCI  16
PLATTEVILLE    CLEAR     24  17  76 NW8       30.22R WCI  15
$$

WIZ056-057-062-063-064-067-068-220400-
SOUTH CENTRAL WISCONSIN

CITY           SKY/WX    TMP DP  RH WIND       PRES   REMARKS
REEDSBURG      CLEAR     22  13  69 W6        30.21R WCI  14
BARABOO/DELLS  CLEAR     23  13  66 NW6       30.19R WCI  15
LONE ROCK      CLEAR     25  14  63 W7        30.23R WCI  17
MINERAL POINT  CLEAR     27  18  69 NW7       30.20R WCI  19
MADISON        CLEAR     24  14  65 NW6       30.19R WCI  17
MIDDLETON      CLEAR     26  16  67 NW9       30.20R WCI  16
WATERTOWN      CLEAR     24  15  68 NW6       30.18R WCI  17
MONROE         CLEAR     25  14  63 NW7       30.19R WCI  17
JANESVILLE     CLEAR     21  16  79 NW6       30.19R WCI  14
$$

WIZ051-052-058>065-066-070>072-220400-
SOUTHEAST WISCONSIN

CITY           SKY/WX    TMP DP  RH WIND       PRES   REMARKS
MILWAUKEE      MOCLDY    29  15  56 NW8       30.15R WCI  21
WAUKESHA       PTCLDY    25  12  58 NW12G17   30.16R WCI  14
MILWAUKEE/TIMM CLOUDY    27  12  54 NW6       30.15R WCI  20
RACINE         PTCLDY    27  15  61 NW8       30.17R WCI  19
BURLINGTON     CLEAR     26  19  77 NW8       30.17R WCI  17
KENOSHA        CLEAR     26  15  63 W8        30.16R WCI  18
FOND DU LAC    CLEAR     25  12  58 NW8       30.17R WCI  16
SHEBOYGAN      CLOUDY    27  15  61 N14G21    30.15R WCI  16
WEST BEND      CLOUDY    28  14  54 NW12      30.15R WCI  18
JUNEAU         CLEAR     24  14  68 NW3       30.19R
$$

LSZ147-162-220400-
LAKE SUPERIOR

STATION/POSITION TIME  TEMP    WIND        PRES    WAVE
                       AIR SEA DIR/SP/G            HT/PER
                 (UTC) (F)     (DEG/KT/KT) (MB)    (FT/S)
DEVILS ISLAND    0300   23     290/ 19/ 21 1024.2R
SAXON HARBOR     0240   24     300/ 20/ 25 1023.0R
$$

LMZ867-665-643>646-220400-
LAKE MICHIGAN

STATION/POSITION TIME  TEMP    WIND        PRES    WAVE
                       AIR SEA DIR/SP/G            HT/PER
                 (UTC) (F)     (DEG/KT/KT) (MB)    (FT/S)
N MID LAKE BUOY  0250   28 47  310/ 19/ 25 1019.7R   5/ 6
NORTHPORT PIER   0246   28     310/ 21     1019.6R
KEWAUNEE LAKESHO 0254   25     340/  8/ 13 1020.2R
SHEBOYGAN LAKESH 0300   28     320/ 13/ 16 1021.8R
PORT WASHINGTON  0230   30     340/  5/ 11 1021.3S
MILWAUKEE LAKESH 0300   29     320/ 11/ 15   N/A
S MID LAKE BUOY  0250   34 47  350/ 17/ 23 1020.2R   6/ 7
KENOSHA   LAKESH 0300   28     300/  9/ 13 1021.3
$$

TC  - TEMPERATURE IN CELSIUS
VSB - VISIBILITY IN STATUTE MILES
WCI - WIND CHILL INDEX
HX  - HEAT INDEX





USA.gov is the U.S. government's official web portal to all federal, state and local government web resources and services.